Change the Weather History Date:

Wednesday, May 22, 2013

  Actual Average Record
Temperature  
Mean Temperature 72 °F 68 °F  
Max Temperature 78 °F 79 °F 93 °F (1975)
Min Temperature 65 °F 56 °F 38 °F (1963)
Degree Days  
Heating Degree Days 0 2  
Month to date heating degree days 64 74  
Since 1 July heating degree days 4512 4529  
Cooling Degree Days 7 4  
Month to date cooling degree days 79 59  
Year to date cooling degree days 113 86  
Growing Degree Days 21 (Base 50)    
Moisture  
Dew Point 62 °F    
Average Humidity 71    
Maximum Humidity 87    
Minimum Humidity 54    
Precipitation  
Precipitation 0.31 in 0.16 in 2.83 in (1908)
Month to date precipitation 4.08 3.82  
Year to date precipitation 21.55 18.70  
Snow  
Snow 0.00 in 0.00 in 0.00 in (2002)
Month to date snowfall 0.0 0.0  
Since 1 July snowfall 12.3 11.8  
Snow Depth 0.00 in    
Sea Level Pressure  
Sea Level Pressure 29.80 in    
Wind  
Wind Speed 8 mph (SSW)    
Max Wind Speed 20 mph    
Max Gust Speed 25 mph    
Visibility 10 miles    
Events Rain    
T = Trace of Precipitation, MM = Missing Value Source: NWS Daily Summary

Daily Weather History Graph

Daily Weather History Graph

Search for Another Location

Airport or City:

Trip Planner

Search our weather history database for the weather conditions in past years. The results will help you decide how hot, cold, wet, or windy it might be!

Date:

Astronomy

May. 22, 2013 Rise Set
Actual Time 5:34 AM CDT 7:59 PM CDT
Civil Twilight 5:03 AM CDT 8:30 PM CDT
Nautical Twilight 4:26 AM CDT 9:07 PM CDT
Astronomical Twilight 3:45 AM CDT 9:48 PM CDT
Moon 5:23 PM CDT (5/22) 3:35 AM CDT (5/22)
Length of Visible Light 15h 26m
Length of Day
14h 25m
Waxing Gibbous, 91% of the Moon is Illuminated
May 22
Waxing Gibbous
May 24
Full
May 31
Last Quarter
Jun 8
New
Jun 16
First Quarter

Hourly Weather History & Observations

Time (CDT) Temp. Dew Point Humidity Pressure Visibility Wind Dir Wind Speed Gust Speed Precip Events Conditions
12:54 AM 66.0 °F 62.1 °F 87% 29.79 in 10.0 mi SW 6.9 mph - 0.00 in   Mostly Cloudy
1:32 AM 66.2 °F 62.6 °F 88% 29.79 in 10.0 mi SSW 6.9 mph - N/A   Mostly Cloudy
1:54 AM 66.0 °F 62.1 °F 87% 29.79 in 10.0 mi South 5.8 mph - 0.00 in Rain Light Rain
2:01 AM 66.2 °F 62.6 °F 88% 29.79 in 10.0 mi South 4.6 mph - 0.00 in   Mostly Cloudy
2:41 AM 66.2 °F 62.6 °F 88% 29.78 in 10.0 mi South 4.6 mph - 0.00 in   Overcast
2:54 AM 66.0 °F 62.1 °F 87% 29.77 in 10.0 mi South 4.6 mph - 0.00 in Rain Light Rain
3:50 AM 66.2 °F 62.6 °F 88% 29.79 in 10.0 mi South 6.9 mph - 0.00 in Rain Light Rain
3:54 AM 66.0 °F 62.1 °F 87% 29.78 in 9.0 mi SSW 6.9 mph - 0.00 in Rain Light Rain
4:01 AM 66.2 °F 62.6 °F 88% 29.79 in 6.0 mi SSW 5.8 mph - 0.01 in Rain Rain
4:38 AM 66.2 °F 62.6 °F 88% 29.79 in 9.0 mi South 4.6 mph - 0.05 in Rain Light Rain
4:49 AM 66.2 °F 62.6 °F 88% 29.78 in 8.0 mi WSW 5.8 mph - 0.07 in Rain Light Rain
4:54 AM 66.0 °F 63.0 °F 90% 29.79 in 10.0 mi SSW 6.9 mph - 0.07 in Rain Light Rain
5:04 AM 66.2 °F 62.6 °F 88% 29.79 in 10.0 mi SSW 4.6 mph - 0.00 in   Overcast
5:42 AM 66.2 °F 62.6 °F 88% 29.80 in 10.0 mi South 8.1 mph - 0.00 in Rain Light Rain
5:54 AM 66.0 °F 63.0 °F 90% 29.79 in 10.0 mi South 6.9 mph - 0.00 in   Overcast
6:01 AM 66.2 °F 62.6 °F 88% 29.80 in 10.0 mi South 6.9 mph - N/A   Overcast
6:29 AM 64.4 °F 62.6 °F 94% 29.79 in 10.0 mi South 5.8 mph - N/A   Mostly Cloudy
6:54 AM 66.0 °F 63.0 °F 90% 29.78 in 10.0 mi South 6.9 mph - N/A   Mostly Cloudy
7:54 AM 68.0 °F 62.1 °F 81% 29.79 in 10.0 mi SSW 9.2 mph 18.4 mph N/A   Mostly Cloudy
8:54 AM 70.0 °F 62.1 °F 76% 29.80 in 10.0 mi SSW 11.5 mph - N/A   Mostly Cloudy
9:26 AM 69.8 °F 60.8 °F 73% 29.81 in 10.0 mi SW 13.8 mph - N/A   Overcast
9:33 AM 69.8 °F 62.6 °F 78% 29.82 in 10.0 mi SSW 10.4 mph 19.6 mph N/A   Overcast
9:54 AM 70.0 °F 62.1 °F 76% 29.81 in 10.0 mi SSW 11.5 mph - N/A   Overcast
10:54 AM 72.0 °F 62.1 °F 71% 29.82 in 10.0 mi SW 11.5 mph - N/A   Overcast
11:03 AM 71.6 °F 62.6 °F 73% 29.83 in 10.0 mi SW 12.7 mph - N/A   Overcast
11:54 AM 69.1 °F 63.0 °F 81% 29.83 in 9.0 mi WSW 13.8 mph - 0.00 in Rain Light Rain
12:10 PM 69.8 °F 62.6 °F 78% 29.83 in 10.0 mi SW 11.5 mph - 0.00 in   Overcast
12:54 PM 72.0 °F 61.0 °F 68% 29.81 in 10.0 mi SW 11.5 mph - 0.00 in   Mostly Cloudy
1:54 PM 73.0 °F 61.0 °F 66% 29.81 in 10.0 mi SW 9.2 mph - N/A   Overcast
2:54 PM 77.0 °F 63.0 °F 62% 29.79 in 10.0 mi SW 8.1 mph - N/A   Clear
3:54 PM 73.9 °F 59.0 °F 59% 29.78 in 10.0 mi WSW 13.8 mph - N/A   Mostly Cloudy
4:54 PM 78.1 °F 60.1 °F 54% 29.77 in 10.0 mi SW 10.4 mph - N/A   Clear
5:54 PM 77.0 °F 59.0 °F 54% 29.77 in 10.0 mi WSW 9.2 mph - N/A   Scattered Clouds
6:54 PM 75.0 °F 59.0 °F 57% 29.78 in 10.0 mi WSW 17.3 mph 20.7 mph 0.00 in Rain Light Rain
7:54 PM 70.0 °F 59.0 °F 68% 29.79 in 10.0 mi WSW 8.1 mph - 0.00 in   Clear
8:54 PM 66.9 °F 60.1 °F 79% 29.81 in 10.0 mi SSW 3.5 mph - N/A   Scattered Clouds
9:54 PM 66.0 °F 59.0 °F 78% 29.81 in 10.0 mi SW 4.6 mph - N/A   Partly Cloudy
10:54 PM 66.0 °F 59.0 °F 78% 29.82 in 10.0 mi SW 3.5 mph - N/A   Scattered Clouds
11:35 PM 66.2 °F 60.8 °F 83% 29.85 in 1.8 mi West 17.3 mph 25.3 mph 0.08 in Rain Heavy Rain
11:45 PM 64.4 °F 62.6 °F 94% 29.85 in 3.0 mi WSW 8.1 mph 24.2 mph 0.24 in Rain Heavy Rain
11:54 PM 64.9 °F 62.1 °F 90% 29.84 in 10.0 mi WSW 4.6 mph - 0.24 in Rain Light Rain